Regional Weather Roundup
Issued by NWS

Home | Current Version | Previous Version | Graphics & Text | Print | Product List | Glossary On
Versions: 1 2 3 4 5 6 7 8 9 10 11 12 13 14 15 16 17 18 19 20 21 22 23 24 25 26 27
000
ASUS45 KSLC 191810
RWRUT

UTAH REGIONAL WEATHER ROUNDUP
NATIONAL WEATHER SERVICE SALT LAKE CITY UT
1100 AM MST THU JAN 19 2017

UTZ001>011-023>025-191900-

NORTHERN UTAH

CITY           SKY/WX    TMP DP  RH WIND       PRES   REMARKS
BRIGHAM CITY     N/A     26  23  87 NW6       29.81S VSB 3/4 WCI  19
DUGWAY           N/A     33  33  98 CALM      29.82R VSB 3/8
HILL AFB       LGT SNOW  32  32 100 S10       29.78S VSB 1   WCI  24
LOGAN          LGT SNOW  22  19  89 CALM      29.80S FOG
OGDEN          SNOW      29  28  96 SE3       29.79S VSB 1/4
SALT LAKE CITY CLOUDY    31  29  92 CALM      29.80S FOG
TOOELE VALLEY  LGT SNOW  28  28 100 CALM      29.81F
WENDOVER       CLOUDY    23  19  86 CALM      29.82S
HEBER CITY     CLOUDY    32  27  80 N3        29.77S
WEST JORDAN    CLOUDY    33  33 100 S16       29.80F WCI  22

$$

UTZ011>015-024>027-191900-

CENTRAL/NORTHEAST UTAH

CITY           SKY/WX    TMP DP  RH WIND       PRES   REMARKS
PROVO AIRPORT  LGT SNOW  33  30  88 SE3       29.83F FOG
MOAB/CANYONLAN CLOUDY    32  29  88 W3        29.84F
DELTA          CLOUDY    32  32 100 S13       29.81F WCI  22
PRICE          CLOUDY    27  24  89 CALM      29.83S
ROOSEVELT      LGT SNOW  16  10  79 CALM      29.93S
VERNAL         CLOUDY    14   9  80 CALM      29.90F

$$

UTZ013>016-019>022-027-191900-

SOUTHERN UTAH

CITY           SKY/WX    TMP DP  RH WIND       PRES   REMARKS
BRYCE CANYON   FOG       27  26  96 SE14      29.83F VSB<1/4 WCI  16
CEDAR CITY     CLOUDY    34  31  88 SW9       29.81S WCI  27
MILFORD        CLOUDY    34  32  92 S14       29.80F WCI  25
ST GEORGE      CLOUDY    43  37  81 NE5       29.91S
HANKSVILLE     CLOUDY    32  28  86 MISG      29.88S
BLANDING       CLOUDY    33  29  88 CALM      29.97F

$$

REGIONAL REPORTS     COLORADO/ARIZONA

CITY           SKY/WX    TMP DP  RH WIND       PRES   REMARKS
CRAIG, CO      CLOUDY    18  11  74 CALM      29.83F
GRAND JUNCTION CLOUDY    36  26  67 SE15      29.84F WCI  27
RIFLE, CO      SUNNY     31  22  69 CALM      29.86F
MONTROSE, CO   CLOUDY    35  21  56 SE3       29.88F
CORTEZ, CO     CLOUDY    37  28  70 CALM      29.90F
COLORADO CITY  LGT RAIN  36  36 100 E6        29.90F WCI  31
PAGE, AZ       CLOUDY    40  31  70 N3        29.86F
GRAND CANYON   LGT SNOW  31  31 100 SW13      29.91F FOG     WCI  21
KINGMAN, AZ    CLOUDY    44  39  82 MISG      29.93R
FLAGSTAFF, AZ  LGT SNOW  30  28  92 SW17      29.93F FOG     WCI  18

$$

REGIONAL REPORTS    NEVADA/IDAHO/WYOMING

CITY           SKY/WX    TMP DP  RH WIND       PRES   REMARKS
LAS VEGAS, NV  PTSUNNY   53  38  56 S14G21    29.83F
ELY, NY        LGT SNOW  30  28  92 S7        29.78F VSB 3/4 WCI  23
ELKO, NV       CLOUDY    35  28  75 W6        29.73S WCI  30
POCATELLO, ID  LGT SNOW  34  31  88 N7        29.72F FOG     WCI  28
BURLEY, ID     CLOUDY    36  29  75 S17       29.69S WCI  26
FORT BRIDGER,  LGT SNOW  13   9  82 CALM      29.77S
EVANSTON, WY   FLURRIES  26  23  88 S9        29.74S WCI  17
ROCK SPRINGS,  CLOUDY     7   5  91 SE3       29.74F

$$




USA.gov is the U.S. government's official web portal to all federal, state and local government web resources and services.